Pittsburg, KS

3:52 PM CST on February 08, 2016 (GMT -0600)
Atkinson Municipal

Weather History for KPTS - May, 2013

Change the Weather History Date:

Friday, May 10, 2013

  Actual Average (KJLN) Record (KJLN)
Temperature  
Mean Temperature 58 °F 65 °F  
Max Temperature 64 °F 76 °F 91 °F (1963)
Min Temperature 51 °F 55 °F 38 °F (1989)
Degree Days  
Heating Degree Days 8 3  
Month to date heating degree days 34  
Since 1 July heating degree days 4037  
Cooling Degree Days 0 3  
Month to date cooling degree days 26  
Year to date cooling degree days 80  
Growing Degree Days 8 (Base 50)    
Moisture  
Dew Point 55 °F    
Average Humidity 81    
Maximum Humidity 100    
Minimum Humidity 65    
Precipitation  
Precipitation 0.01 in 0.18 in 1.52 in (1996)
Month to date precipitation 1.92  
Year to date precipitation 14.16  
Sea Level Pressure  
Sea Level Pressure 30.00 in    
Wind  
Wind Speed 4 mph (North)    
Max Wind Speed 12 mph    
Max Gust Speed 17 mph    
Visibility 8 miles    
Events Thunderstorm    
T = Trace of Precipitation, MM = Missing Value Source: NWS Daily Summary

Daily Weather History Graph

Daily Weather History Graph

Search for Another Location

Airport or City:

Trip Planner

Search our weather history database for the weather conditions in past years. The results will help you decide how hot, cold, wet, or windy it might be!

Date:

Astronomy

May. 10, 2013 Rise Set
Actual Time 6:14 AM CDT 8:17 PM CDT
Civil Twilight 5:45 AM CDT 8:46 PM CDT
Nautical Twilight 5:10 AM CDT 9:21 PM CDT
Astronomical Twilight 4:32 AM CDT 9:59 PM CDT
Moon 6:39 AM CDT (5/10) 9:06 PM CDT (5/10)
Length of Visible Light 15h 00m
Length of Day
14h 03m
New Moon, 0% of the Moon is Illuminated
May 10
New Moon
May 17
First Quarter
May 24
Full
May 31
Last Quarter
Jun 8
New

Hourly Weather History & Observations

Time (CDT) Temp. Dew Point Humidity Pressure Visibility Wind Dir Wind Speed Gust Speed Precip Events Conditions
12:15 AM 64.9 °F - N/A% 29.93 in 7.0 mi SW 4.6 mph - N/A Thunderstorm Scattered Clouds
12:35 AM 63.9 °F - N/A% 29.92 in 7.0 mi SW 4.6 mph - N/A   Scattered Clouds
1:15 AM 62.8 °F - N/A% 29.92 in 1.5 mi Calm Calm - N/A   Scattered Clouds
1:35 AM 62.1 °F - N/A% 29.93 in 4.0 mi SW 3.5 mph - N/A   Scattered Clouds
1:55 AM 62.1 °F - N/A% 29.93 in 4.0 mi Calm Calm - N/A   Scattered Clouds
2:15 AM 61.3 °F - N/A% 29.92 in 1.2 mi Calm Calm - N/A   Scattered Clouds
2:35 AM 60.8 °F - N/A% 29.92 in 1.2 mi NW 4.6 mph - N/A   Mostly Cloudy
2:55 AM 60.8 °F - N/A% 29.92 in 5.0 mi Calm Calm - N/A   Scattered Clouds
3:15 AM 60.8 °F - N/A% 29.92 in 7.0 mi Calm Calm - N/A   Clear
3:55 AM 58.5 °F - N/A% 29.92 in 10.0 mi NNW 3.5 mph - N/A   Clear
4:15 AM 58.3 °F - N/A% 29.92 in 10.0 mi Calm Calm - N/A   Clear
4:35 AM 58.3 °F - N/A% 29.92 in 10.0 mi Calm Calm - N/A   Clear
4:55 AM 58.3 °F - N/A% 29.92 in 10.0 mi Calm Calm - N/A   Clear
5:15 AM 58.3 °F - N/A% 29.92 in 7.0 mi North 4.6 mph - N/A   Clear
5:35 AM 58.3 °F - N/A% 29.92 in 7.0 mi NNW 5.8 mph - N/A   Clear
5:55 AM 58.3 °F - N/A% 29.92 in 7.0 mi North 6.9 mph - N/A   Clear
6:15 AM 58.3 °F - N/A% 29.93 in 5.0 mi North 5.8 mph - N/A   Clear
6:35 AM 58.3 °F 58.5 °F 100% 29.94 in 4.0 mi NNW 6.9 mph - N/A   Clear
7:15 AM 58.3 °F - N/A% 29.96 in 4.0 mi North 5.8 mph - 0.01 in   Overcast
7:35 AM 58.3 °F - N/A% 29.96 in 4.0 mi North 6.9 mph - 0.01 in   Overcast
8:15 AM 58.5 °F 58.6 °F 100% 29.97 in 5.0 mi North 6.9 mph - N/A   Overcast
8:35 AM 60.4 °F 60.6 °F 100% 29.98 in 10.0 mi NNE 9.2 mph - N/A   Overcast
8:55 AM 60.8 °F 61.0 °F 100% 29.99 in 7.0 mi North 5.8 mph - N/A   Overcast
9:15 AM 60.8 °F 61.0 °F 100% 30.01 in 10.0 mi North 4.6 mph - N/A   Overcast
9:35 AM 61.2 °F 61.0 °F 99% 30.00 in 10.0 mi NNE 9.2 mph - N/A   Overcast
9:55 AM 61.7 °F 60.6 °F 96% 30.00 in 10.0 mi North 5.8 mph - N/A   Overcast
10:15 AM 61.9 °F 60.6 °F 96% 30.01 in 10.0 mi NNE 8.1 mph - N/A   Overcast
10:35 AM 62.1 °F 58.8 °F 89% 30.01 in 10.0 mi North 4.6 mph - N/A   Mostly Cloudy
10:55 AM 62.1 °F 58.1 °F 87% 30.02 in 10.0 mi North 5.8 mph - N/A   Overcast
11:15 AM 62.1 °F 57.7 °F 86% 30.02 in 10.0 mi North 6.9 mph - N/A   Overcast
11:35 AM 61.9 °F 57.9 °F 87% 30.03 in 10.0 mi NNW 9.2 mph - N/A   Overcast
12:15 PM 61.0 °F 57.6 °F 88% 30.02 in 10.0 mi North 10.4 mph 17.3 mph N/A   Overcast
12:35 PM 61.0 °F 54.9 °F 80% 30.03 in 10.0 mi North 10.4 mph - N/A   Overcast
12:55 PM 61.5 °F 53.2 °F 74% 30.02 in 10.0 mi NNW 11.5 mph - N/A   Overcast
1:15 PM 61.7 °F 52.9 °F 73% 30.02 in 10.0 mi North 8.1 mph - N/A   Overcast
1:35 PM 61.9 °F 52.2 °F 70% 30.02 in 10.0 mi North 8.1 mph - N/A   Overcast
1:55 PM 62.2 °F 51.4 °F 68% 30.02 in 10.0 mi North 4.6 mph - N/A   Overcast
2:15 PM 63.3 °F 51.6 °F 66% 30.02 in 10.0 mi NNW 9.2 mph - N/A   Overcast
2:35 PM 63.1 °F 51.3 °F 65% 30.02 in 10.0 mi North 10.4 mph - N/A   Overcast
2:55 PM 62.8 °F 51.3 °F 66% 30.02 in 10.0 mi NNW 6.9 mph - N/A   Overcast
3:15 PM 63.3 °F 51.8 °F 66% 30.02 in 10.0 mi North 6.9 mph - N/A   Overcast
3:35 PM 63.0 °F 53.1 °F 70% 30.02 in 10.0 mi NNW 9.2 mph - N/A   Overcast
3:55 PM 62.6 °F 53.8 °F 73% 30.03 in 10.0 mi NNW 4.6 mph - N/A   Overcast
4:15 PM 62.6 °F 53.6 °F 72% 30.03 in 10.0 mi NNW 4.6 mph - N/A   Overcast
4:35 PM 62.4 °F 53.8 °F 73% 30.02 in 10.0 mi North 6.9 mph - N/A   Overcast
4:55 PM 63.5 °F 53.6 °F 70% 30.02 in 10.0 mi North 6.9 mph - N/A   Overcast
5:15 PM 63.5 °F 53.4 °F 70% 30.02 in 10.0 mi North 5.8 mph - N/A   Overcast
5:35 PM 63.5 °F 54.0 °F 71% 30.02 in 10.0 mi North 5.8 mph - N/A   Overcast
5:55 PM 62.4 °F 53.6 °F 73% 30.02 in 10.0 mi NNW 3.5 mph - N/A   Overcast
6:15 PM 62.1 °F 54.0 °F 75% 30.02 in 10.0 mi North 6.9 mph - N/A   Overcast
6:35 PM 62.1 °F 54.0 °F 75% 30.02 in 10.0 mi North 5.8 mph - N/A   Overcast
6:55 PM 62.1 °F 53.4 °F 73% 30.02 in 10.0 mi North 8.1 mph 16.1 mph N/A   Overcast
7:15 PM 62.1 °F 52.7 °F 71% 30.02 in 10.0 mi NNE 10.4 mph - N/A   Mostly Cloudy
7:35 PM 61.0 °F 52.5 °F 74% 30.02 in 10.0 mi NNE 4.6 mph - N/A   Scattered Clouds
7:55 PM 60.8 °F 52.9 °F 75% 30.03 in 10.0 mi NNE 5.8 mph - N/A   Scattered Clouds
8:15 PM 59.4 °F 52.7 °F 79% 30.04 in 10.0 mi Calm Calm - N/A   Clear
8:35 PM 58.3 °F 54.5 °F 87% 30.04 in 10.0 mi Calm Calm - N/A   Clear
8:55 PM 56.8 °F 57.0 °F 100% 30.04 in 10.0 mi Calm Calm - N/A   Clear
9:15 PM 55.8 °F 55.9 °F 100% 30.04 in 10.0 mi Calm Calm - N/A   Clear
9:35 PM 55.8 °F - N/A% 30.06 in 10.0 mi WSW 3.5 mph - N/A   Clear
9:55 PM 55.8 °F - N/A% 30.06 in 10.0 mi Calm Calm - N/A   Clear
10:15 PM 55.8 °F - N/A% 30.06 in 10.0 mi Calm Calm - N/A   Clear
10:35 PM 53.4 °F - N/A% 30.05 in 7.0 mi Calm Calm - N/A   Clear
10:55 PM 52.0 °F - N/A% 30.05 in 10.0 mi Calm Calm - N/A   Clear
11:15 PM 51.1 °F - N/A% 30.05 in 7.0 mi Calm Calm - N/A   Clear
11:35 PM 51.6 °F - N/A% 30.06 in 7.0 mi Calm Calm - N/A   Clear
11:55 PM 51.3 °F - N/A% 30.07 in 7.0 mi Calm Calm - N/A   Clear